Regional Weather Roundup
Issued by NWS

Home | Current Version | Previous Version | Text Only | Print | Product List | Glossary Off
Versions: 1 2 3 4 5 6 7 8 9 10 11 12 13 14 15 16 17 18 19 20 21 22 23 24 25 26 27 28 29 30 31 32 33 34 35 36 37 38 39 40 41 42 43 44 45 46 47 48 49 50

000
ASUS43 KFSD 191410
RWRSD

WEATHER ROUNDUP FOR SOUTH DAKOTA
NATIONAL WEATHER SERVICE SIOUX FALLS SD
900 AM CDT SAT AUG 19 2017

NOTE: "FAIR" INDICATES FEW OR NO CLOUDS BELOW 12,000 FEET WITH NO
SIGNIFICANT WEATHER AND/OR OBSTRUCTIONS TO VISIBILITY.


SDZ001>005-009-010-012>017-191500-
NORTHWEST AND NORTH CENTRAL SOUTH DAKOTA

CITY           SKY/WX    TMP DP  RH WIND       PRES   REMARKS
BUFFALO          N/A     60  49  66 CALM      29.80S
FAITH            N/A     67  56  67 S17       29.83F
MOBRIDGE       SUNNY     66  60  81 SE14      29.83F
$$

SDZ012>016-024>037-041>051-057-063-072>074-191500-
SOUTHWEST AND SOUTH CENTRAL SOUTH DAKOTA

CITY           SKY/WX    TMP DP  RH WIND       PRES   REMARKS
RAPID CTY ARPT SUNNY     66  51  58 CALM      29.88F
PIERRE         SUNNY     66  57  72 SE12      29.86F
CUSTER         SUNNY     68  46  45 VRB5      30.05S
ELLSWORTH AFB  SUNNY     66  51  58 CALM      29.88S
PHILIP         SUNNY     71  57  61 S8        29.85F
PINE RIDGE     SUNNY     68  55  63 S16       29.91F
SPEARFISH      FAIR      73  45  35 CALM      29.93S
WINNER         FAIR      70  58  65 S9        29.91F
$$

SDZ004>011-016>023-039-040-191500-
NORTHEAST SOUTH DAKOTA

CITY           SKY/WX    TMP DP  RH WIND       PRES   REMARKS
ABERDEEN       SUNNY     59  59 100 SE8       29.91F
WATERTOWN      SUNNY     60  59  96 SE6       29.95S
BROOKINGS      CLOUDY    58  58 100 SE6       29.98S
SISSETON         N/A     69  63  81 S3        29.90F
$$

SDZ017-020-022-023-036>040-048>070-191500-
SOUTHEAST SOUTH DAKOTA

CITY           SKY/WX    TMP DP  RH WIND       PRES   REMARKS
SIOUX FALLS    FOG       62  60  93 E7        29.98S VSB 3/4
HURON          SUNNY     64  59  83 MISG      29.93S
CHAMBERLAIN    SUNNY     67  63  87 SE6       29.92S
MITCHELL       SUNNY     62  59  90 SE7       29.95S
YANKTON        SUNNY     61  59  93 CALM      29.97F
$$

ABBREVIATIONS USED IN REMARKS
   TC - TEMPERATURE IN CELSIUS
  WCI - WIND CHILL INDEX
   HX - HEAT INDEX
  VSB - VISIBILITY





USA.gov is the U.S. government's official web portal to all federal, state and local government web resources and services.